Date,TemperatureHighF,TemperatureAvgF,TemperatureLowF,DewpointHighF,DewpointAvgF,DewpointLowF,HumidityHigh,HumidityAvg,HumidityLow,PressureMaxIn,PressureMinIn,WindSpeedMaxMPH,WindSpeedAvgMPH,GustSpeedMaxMPH,PrecipitationSumIn
2013-1-1,52.9,32.7,24.4,28.6,11.9,-5.2,78,48,13,29.35,29.23,9,1,9,0.59
2013-1-2,53.6,31.8,20.8,13.1,5.6,-4.7,63,37,13,29.23,29.06,6,1,6,0.59
2013-1-3,56.1,33.6,19.6,16.4,6.0,-5.8,61,35,12,29.18,28.97,6,0,6,0.59
2013-1-4,69.4,50.0,42.8,36.2,21.5,3.0,75,40,10,29.23,29.09,12,5,12,0.00
2013-1-14,34.2,34.0,34.0,9.9,9.9,9.9,36,36,36,29.23,29.23,0,0,0,0.00
2013-1-15,39.4,35.8,33.3,26.9,21.9,16.0,76,58,40,29.35,29.32,11,4,11,0.00
2013-1-16,37.6,33.3,30.7,30.4,25.7,17.6,81,74,49,29.35,29.23,8,2,8,0.00
2013-1-17,38.5,32.5,30.4,34.0,27.1,21.8,87,80,62,29.23,29.00,4,0,4,0.00
2013-1-18,39.7,31.9,27.5,32.0,23.6,15.8,84,72,43,29.00,28.91,4,0,4,0.00
2013-4-4,61.7,56.3,52.2,45.7,34.6,27.0,68,45,27,29.59,29.38,29,9,29,0.12
2013-4-5,62.1,52.4,49.6,40.4,32.7,22.9,69,48,24,29.68,29.53,22,10,22,0.16
2013-4-6,61.2,50.3,45.5,41.9,33.0,13.7,75,56,17,29.71,29.41,20,10,20,1.02
2013-4-7,54.1,46.8,40.3,32.8,26.5,20.7,67,45,32,29.65,29.32,33,12,33,0.12
2013-4-8,65.7,46.2,36.7,39.1,22.9,4.1,78,46,10,29.97,29.65,10,2,10,0.00
2013-4-9,74.3,51.2,33.8,34.1,19.3,5.6,77,37,8,30.03,29.91,6,1,6,0.00
2013-4-10,67.8,50.6,41.0,39.0,24.7,9.3,54,38,13,30.03,29.85,22,6,22,0.04
2013-4-11,72.5,48.9,34.5,34.1,17.2,2.0,74,37,9,30.03,29.85,10,2,10,0.00
2013-4-12,67.6,47.4,31.5,38.2,18.2,3.7,75,39,10,29.85,29.56,14,4,14,0.08
2013-4-13,61.9,44.9,35.8,35.4,17.4,0.4,76,40,11,29.80,29.62,15,6,15,0.08
2013-4-14,54.5,42.3,38.7,32.3,22.5,7.3,70,47,15,29.80,29.62,12,4,12,0.24
2013-4-15,63.7,46.7,37.8,46.1,21.0,0.7,75,45,11,29.85,29.62,13,3,13,0.04
2013-4-16,70.2,48.8,35.6,40.0,19.0,2.5,77,40,9,30.06,29.85,13,3,13,0.00
2013-4-17,76.8,50.7,32.5,27.6,16.0,3.9,73,32,8,30.15,30.06,10,2,10,0.00
2013-4-18,80.4,57.4,42.8,35.7,17.7,6.0,58,27,7,30.15,30.09,9,2,9,0.00
2013-4-19,60.4,51.3,47.8,42.4,35.2,23.1,77,56,28,30.09,30.09,22,7,22,0.43
2013-4-20,75.0,54.5,42.1,36.1,21.1,5.3,61,34,8,30.09,30.09,8,3,8,0.00
2013-4-21,64.2,50.4,39.7,31.0,22.9,10.8,61,37,13,30.09,30.09,12,4,12,0.00
2013-4-22,64.9,46.0,37.6,30.8,21.9,6.9,68,42,10,30.09,30.09,15,7,15,0.00
2013-4-29,75.2,57.3,37.4,48.3,11.3,-0.5,73,20,8,29.88,0.00,17,8,17,0.00
2013-4-30,75.4,47.9,30.0,23.3,11.0,1.4,66,28,8,30.06,29.88,11,3,11,0.00
2013-5-1,69.6,55.1,37.0,16.3,8.2,1.8,40,17,10,30.12,30.06,15,7,15,0.00
2013-5-2,81.7,63.3,35.2,19.1,11.2,4.6,42,16,7,30.06,29.88,17,5,17,0.00
2013-5-3,77.7,64.4,49.8,11.4,7.4,2.5,14,11,8,29.91,29.77,17,8,17,0.00
2013-5-4,82.9,68.8,47.8,21.9,9.9,3.0,35,11,7,29.77,29.53,26,8,26,0.00
2013-5-5,88.0,71.0,50.7,23.4,9.5,2.5,30,10,6,29.53,29.32,20,6,20,0.00
2013-5-6,91.6,68.1,47.5,28.5,16.6,6.3,42,18,4,29.56,29.44,15,4,15,0.00
2013-5-7,89.8,65.4,46.0,35.1,19.6,7.5,64,25,5,29.71,29.56,13,4,13,0.00
2013-5-8,80.1,57.1,43.5,37.3,24.8,6.9,70,35,8,29.80,29.71,12,3,12,0.00
2013-5-9,87.1,65.9,44.1,40.7,19.4,6.9,76,27,6,29.83,29.74,12,3,12,0.00
2013-5-10,100.6,73.1,47.1,35.2,21.2,6.1,52,21,4,29.85,29.77,10,2,10,0.00
2013-5-11,99.5,72.8,53.1,38.0,24.5,6.1,46,24,4,29.85,29.68,8,2,8,0.00
2013-5-12,83.8,64.4,56.5,44.4,31.5,14.2,63,35,9,29.80,29.74,11,3,11,0.00
2013-5-13,73.2,59.1,46.9,52.7,31.9,7.2,80,44,9,29.88,29.71,21,7,21,0.08
2013-5-14,83.5,59.8,40.3,37.4,17.9,2.8,64,26,6,29.88,29.77,10,3,10,0.00
2013-5-15,65.7,52.3,43.9,41.0,29.2,15.9,64,42,15,29.77,29.68,10,3,10,0.12
2013-5-16,70.5,55.3,50.0,45.7,37.5,23.5,75,53,20,29.68,29.59,13,2,13,0.28
2013-5-17,78.4,56.7,46.0,42.6,27.7,6.8,79,42,8,29.77,29.65,12,2,12,0.08
2013-5-18,60.8,53.2,48.7,39.5,32.1,20.8,61,45,22,29.94,29.77,12,3,12,0.04
2013-5-19,70.3,55.7,46.2,47.5,28.5,6.7,75,43,9,30.06,29.91,11,5,11,0.20
2013-5-20,79.7,58.4,42.6,34.6,19.9,7.1,65,29,7,29.97,29.59,10,4,10,0.00
2013-5-21,50.9,47.8,46.2,41.7,36.4,20.9,76,66,31,29.59,29.53,8,2,8,0.12
2013-5-23,47.8,47.5,47.3,40.7,39.7,38.0,76,74,70,29.68,29.68,13,7,13,0.24
2013-5-24,64.4,52.0,46.6,41.1,30.4,11.1,79,49,13,29.77,29.68,17,6,17,0.08
2013-5-25,79.3,61.8,45.5,43.9,22.0,6.7,72,31,7,29.74,29.59,11,3,11,0.12
2013-5-26,72.0,58.2,49.8,48.3,31.0,12.3,79,44,12,29.71,29.62,17,6,17,0.24
2013-5-27,67.1,54.9,49.5,51.3,38.4,29.0,74,55,26,29.68,29.44,20,6,20,0.87
2013-5-28,71.6,58.2,50.5,44.5,26.3,6.5,74,37,9,29.62,29.44,17,6,17,0.12
2013-5-29,72.9,56.6,48.2,45.5,28.6,6.9,76,42,9,29.77,29.32,23,8,23,0.28
2013-5-30,77.5,57.9,47.1,32.9,20.6,6.8,55,29,8,29.94,29.77,13,4,13,0.08
2013-5-31,80.1,61.4,42.4,35.3,17.2,6.4,71,25,7,29.97,29.88,13,4,13,0.00
2013-6-1,92.3,66.3,42.8,40.2,19.9,6.1,71,26,4,29.91,29.71,10,3,10,0.00
2013-6-2,78.8,63.2,49.6,33.5,21.8,7.6,48,25,7,29.77,29.71,12,5,12,0.00
2013-6-3,76.1,61.6,47.3,40.1,20.5,6.9,72,26,8,29.77,29.71,15,6,15,0.00
2013-6-4,84.6,69.7,50.0,33.4,17.8,8.8,43,18,6,29.74,29.65,13,5,13,0.00
2013-6-5,90.3,73.5,52.5,37.5,20.2,8.6,46,19,5,29.74,29.65,11,4,11,0.00
2013-6-6,89.4,73.5,57.2,37.6,20.4,8.6,41,18,5,29.71,29.65,12,5,12,0.00
2013-6-7,104.7,74.7,49.1,35.8,18.4,6.1,44,17,4,29.80,29.71,11,4,11,0.00
2013-6-8,83.8,66.5,50.9,35.1,20.1,7.6,53,23,6,29.83,29.71,13,6,13,0.00
2013-6-9,75.2,61.7,50.4,30.8,19.6,7.2,41,23,8,29.77,29.62,22,8,22,0.00
2013-6-10,77.7,60.3,46.0,26.4,16.0,6.7,45,22,8,29.68,29.56,17,6,17,0.00
2013-6-11,89.2,59.4,48.6,28.1,18.0,6.7,42,23,5,29.80,29.56,11,3,11,0.00
2013-6-12,81.9,59.7,46.8,31.6,19.3,6.0,47,25,7,29.85,29.77,11,3,11,0.00
2013-6-13,68.4,53.2,48.2,44.6,36.7,19.0,77,56,15,29.94,29.83,13,4,13,0.35
2013-6-14,93.4,63.0,42.1,45.2,18.2,0.0,79,29,4,29.94,29.62,15,4,15,0.04
2013-6-15,91.8,69.9,44.1,36.4,17.2,6.3,66,20,4,29.68,29.59,10,3,10,0.00
2013-6-16,88.2,63.0,45.9,45.9,25.4,8.6,76,34,5,29.80,29.68,8,1,8,0.00
2013-6-17,90.0,67.6,48.7,39.3,21.9,8.1,67,27,5,29.80,29.62,13,3,13,0.00
2013-6-18,83.8,63.9,51.1,39.0,22.6,7.2,51,27,6,29.68,29.59,16,5,16,0.08
2013-6-19,72.9,57.2,48.4,40.3,27.8,11.2,72,37,11,29.77,29.62,15,4,15,0.04
2013-6-20,77.2,59.3,48.6,38.7,26.1,8.7,65,33,8,29.80,29.74,13,4,13,0.00
2013-6-21,83.8,64.0,50.5,36.9,20.5,7.1,57,25,6,29.83,29.80,9,2,9,0.00
2013-6-22,93.7,71.5,45.1,42.4,17.9,6.1,75,22,4,29.80,29.80,8,1,8,0.00
2013-6-23,79.9,64.5,56.5,53.4,35.7,11.1,76,42,10,29.80,29.80,15,2,15,0.35
2013-6-24,72.1,60.1,54.5,51.9,34.3,13.4,73,42,11,29.80,29.80,15,5,15,0.04
2013-6-25,77.2,61.2,56.7,48.8,39.3,25.6,74,47,15,29.80,29.80,10,4,10,0.31
2013-6-26,75.9,63.9,57.6,52.0,36.4,14.9,77,40,10,29.80,29.80,15,4,15,0.04
2013-6-27,104.4,76.9,56.8,48.3,26.3,6.1,54,23,4,29.80,29.80,11,3,11,0.00
2013-6-28,103.5,81.4,56.8,58.9,26.4,8.6,76,23,4,29.80,29.80,8,2,8,0.00
2013-6-29,102.6,77.9,56.7,41.6,23.4,6.4,50,20,4,29.80,29.80,9,3,9,0.00
2013-6-30,105.8,83.2,57.9,41.1,25.9,13.5,51,19,4,29.80,29.80,8,2,8,0.00
2013-7-1,105.3,83.7,60.3,48.2,27.8,13.5,56,20,4,29.80,29.80,8,2,8,0.00
2013-7-2,98.6,80.5,61.7,47.2,24.5,9.3,54,18,6,29.80,29.68,13,5,13,0.00
2013-7-3,91.4,73.1,56.8,31.5,18.1,6.1,38,15,4,29.80,29.68,14,7,14,0.00
2013-7-4,80.6,65.6,50.2,31.8,17.9,6.8,49,20,7,29.80,29.68,13,7,13,0.00
2013-7-5,77.5,63.5,54.1,32.7,19.7,7.1,41,22,8,29.74,29.59,13,5,232,0.00
2013-7-6,80.6,64.6,49.3,42.5,21.5,8.5,69,26,7,29.62,29.50,15,6,15,0.00
2013-7-7,86.2,69.3,49.5,48.9,21.6,8.7,72,24,6,29.62,29.53,15,4,15,0.00
2013-7-8,84.6,68.8,50.9,43.5,21.2,8.8,70,25,6,29.71,29.62,13,6,13,0.00
2013-7-9,94.5,76.9,55.2,39.8,22.0,6.3,55,18,4,29.74,29.65,12,5,12,0.00
2013-7-10,88.5,72.6,55.6,36.0,17.6,8.6,44,16,5,29.71,29.56,13,6,13,0.00
2013-7-11,79.9,63.2,48.9,28.1,16.4,6.4,40,19,7,29.71,29.59,22,7,22,0.00
2013-7-12,86.9,67.2,49.6,28.1,15.5,7.1,39,17,6,29.74,29.62,12,5,12,0.00
2013-7-13,82.4,67.4,50.9,28.3,15.2,7.4,40,17,7,29.77,29.65,18,7,18,0.00
2013-7-14,89.8,73.4,56.8,28.8,13.1,6.0,34,12,5,29.71,29.59,13,7,13,0.00
2013-7-15,86.9,73.3,54.9,14.6,9.6,4.4,18,9,6,29.65,29.44,15,7,15,0.00
2013-7-16,95.2,73.0,54.0,34.4,15.8,6.0,40,14,4,29.65,29.41,13,5,13,0.00
2013-7-17,89.1,68.6,55.9,46.7,23.0,8.5,70,24,5,29.80,29.65,12,5,12,0.00
2013-7-18,86.7,68.7,49.6,46.5,22.4,8.3,73,25,6,29.83,29.71,17,6,17,0.00
2013-7-19,84.4,68.4,50.9,41.7,23.4,8.8,58,24,6,29.77,29.62,18,6,18,0.00
2013-7-20,80.8,67.5,50.5,46.9,23.9,9.5,74,25,7,29.71,29.59,17,6,17,0.00
2013-7-21,85.8,70.8,48.7,40.9,19.6,8.6,59,20,6,29.62,29.53,14,6,14,0.00
2013-7-22,85.8,70.1,54.9,49.5,23.8,8.5,76,26,6,29.68,29.56,16,7,16,0.00
2013-7-23,91.6,75.1,52.0,36.8,18.1,8.5,43,15,5,29.68,29.59,15,6,15,0.00
2013-7-24,93.7,77.5,53.8,37.1,18.0,6.1,49,15,4,29.68,29.62,16,5,16,0.00
2013-7-25,91.8,78.9,57.9,31.3,13.5,8.5,35,10,5,29.71,29.62,18,7,18,0.00
2013-7-26,92.5,75.4,56.3,25.3,10.9,6.1,27,9,5,29.77,29.68,17,7,17,0.00
2013-7-27,86.2,69.2,50.0,28.4,12.5,4.2,37,13,6,29.80,29.62,15,7,15,0.00
2013-7-28,89.8,67.1,45.7,33.1,18.2,7.8,58,21,5,29.71,29.56,15,5,15,0.00
2013-7-29,87.3,66.6,52.2,33.7,20.2,8.5,43,22,6,29.68,29.59,16,5,16,0.00
2013-7-30,94.8,70.3,46.4,42.7,19.5,6.1,72,22,4,29.77,29.68,13,3,13,0.00
2013-7-31,88.3,66.8,52.0,42.6,25.5,8.6,62,27,5,29.74,29.65,14,3,14,0.00
2013-8-1,70.3,60.9,55.8,46.9,33.4,18.8,65,37,17,29.77,29.71,12,3,12,0.00
2013-8-2,90.9,66.4,56.3,39.7,22.3,8.3,53,24,5,29.80,29.74,13,3,13,0.00
2013-8-3,84.7,70.1,51.1,46.5,19.1,8.6,73,20,6,29.74,29.62,16,6,16,0.00
2013-8-4,94.8,76.0,55.6,41.9,21.3,6.1,54,17,4,29.65,29.56,15,5,15,0.00
2013-8-5,102.6,78.8,54.9,42.6,20.5,6.1,58,17,4,29.65,29.56,13,3,13,0.00
2013-8-6,105.3,78.9,53.6,42.1,22.2,6.4,57,18,4,29.65,29.59,13,3,13,0.00
2013-8-7,97.5,77.3,56.7,32.4,17.0,6.1,38,14,4,29.68,29.62,18,5,18,0.00
2013-8-8,91.9,68.6,54.5,36.4,23.7,6.1,50,27,4,29.71,29.59,17,5,17,0.00
2013-8-21,93.7,84.1,70.3,20.0,11.0,6.1,9,6,4,29.62,29.50,15,6,15,0.00
2013-8-22,93.2,73.6,59.0,45.4,19.8,6.1,55,17,4,29.56,29.50,13,4,13,0.00
2013-8-23,81.7,65.0,57.4,53.0,32.7,8.6,77,39,7,29.59,29.53,12,4,12,0.04
2013-8-24,85.6,67.5,53.4,40.6,23.6,8.5,58,25,6,29.56,29.50,10,2,10,0.00
2013-8-25,84.0,63.2,53.8,55.6,34.0,8.8,73,39,6,29.59,29.53,10,2,10,0.12
2013-8-26,84.7,69.3,57.9,51.5,28.1,8.5,75,31,6,29.62,29.56,24,5,24,0.00
2013-8-27,95.9,73.8,58.3,37.8,22.7,6.1,42,19,4,29.62,29.44,15,3,15,0.00
2013-8-28,100.0,74.9,58.8,52.1,28.4,6.1,73,27,4,29.56,29.50,13,3,13,0.00
2013-8-29,87.1,68.2,62.1,65.1,42.8,16.6,78,44,9,29.74,29.50,15,5,15,0.12
2013-8-30,99.9,73.3,61.9,56.0,29.7,6.1,77,31,4,29.80,29.68,11,3,11,0.00
2013-8-31,98.8,75.7,54.7,46.6,23.0,6.1,69,21,4,29.68,29.50,11,2,11,0.00
2013-9-1,93.2,72.7,54.1,38.2,22.2,6.1,50,22,4,29.56,29.50,14,4,14,0.00
2013-9-3,95.4,78.1,60.1,33.6,15.8,6.1,35,12,4,29.65,29.59,11,4,11,0.00
2013-9-4,88.3,67.8,55.8,39.6,23.4,8.6,52,23,5,29.71,29.65,9,2,9,0.00
2013-9-5,79.0,61.8,56.5,53.4,45.3,14.9,80,61,10,29.74,29.62,22,4,22,2.32
2013-9-6,79.3,63.3,55.2,55.1,40.6,11.6,81,53,8,29.83,29.74,16,6,16,0.91
2013-9-7,85.1,66.6,51.3,54.4,29.4,8.8,78,37,6,29.77,29.59,13,4,13,0.00
2013-9-8,86.0,71.1,55.9,46.1,27.1,8.8,56,25,6,29.74,29.65,17,6,17,0.00
2013-9-9,93.7,73.8,55.9,55.4,25.9,8.8,73,23,6,29.68,29.59,17,6,17,0.00
2013-9-10,91.2,76.1,57.9,57.6,31.1,16.6,75,26,7,29.59,29.44,15,5,15,0.00
2013-9-11,104.7,78.6,58.1,41.3,27.7,8.7,47,22,4,29.62,29.47,9,3,9,0.00
2013-9-12,91.6,68.5,56.1,52.2,35.9,8.8,78,41,5,29.68,29.56,8,2,8,0.00
2013-9-13,82.2,66.0,56.7,52.8,41.6,16.6,75,47,9,29.62,29.50,9,2,9,0.00
2013-9-14,84.7,67.0,57.4,57.8,39.6,15.2,80,46,8,29.53,29.38,9,3,9,0.00
2013-9-15,69.6,61.7,58.3,53.9,46.3,35.8,80,59,29,29.59,29.41,12,5,12,0.00
2013-9-16,84.7,65.1,57.6,47.6,31.2,9.5,67,33,6,29.65,29.56,11,4,13,0.00
2013-9-17,82.2,62.2,55.4,45.6,27.2,8.6,62,32,7,29.71,29.53,16,5,16,0.00
2013-9-18,88.2,63.1,50.2,52.9,26.3,6.0,79,36,5,29.77,29.68,10,3,10,0.00
2013-9-19,90.3,65.2,44.2,42.7,21.3,7.1,76,29,5,29.68,29.44,6,1,6,0.00
2013-9-20,82.4,61.4,49.5,37.7,25.2,8.6,48,30,6,29.47,29.35,18,5,18,0.00
2013-9-21,75.9,61.7,53.8,51.3,33.7,8.6,76,44,8,29.47,29.35,15,5,15,0.00
2013-9-22,58.8,55.6,53.4,48.8,39.9,29.5,76,57,33,29.50,29.41,24,10,24,0.24
2013-9-23,65.8,56.5,52.5,49.2,39.5,32.4,78,54,30,29.68,29.41,17,6,17,0.35
2013-9-24,66.2,54.6,49.6,54.4,41.1,25.6,81,63,23,29.65,29.53,17,3,17,0.51
2013-9-25,75.0,54.2,48.0,43.8,31.6,6.7,76,49,10,29.71,29.53,10,3,10,0.28
2013-9-26,85.6,57.4,45.7,46.3,27.2,6.0,76,42,6,29.80,29.71,10,1,10,0.28
2013-9-27,59.0,51.9,44.2,46.7,35.4,23.4,76,55,27,29.83,29.62,22,7,22,0.28
2013-9-28,66.7,58.8,55.8,49.4,42.2,30.5,76,56,27,29.62,29.38,32,13,32,0.16
2013-9-29,55.4,53.7,52.9,42.4,38.2,34.2,66,56,47,29.38,29.18,31,17,31,0.59
2013-9-30,63.1,53.6,50.5,46.6,33.4,27.0,69,47,28,29.71,29.35,20,9,24,1.50
2013-10-1,65.7,51.6,44.4,43.9,31.6,6.0,74,49,11,29.88,29.68,16,5,16,0.35
2013-10-2,61.0,48.9,39.9,41.7,31.3,22.3,78,53,25,29.85,29.74,14,4,14,0.16
2013-10-3,82.2,52.5,41.0,45.1,27.1,4.6,80,47,7,30.06,29.85,13,3,13,0.04
2013-10-4,70.5,51.7,36.0,40.8,24.5,3.7,78,44,10,30.09,30.03,11,3,11,0.04
2013-10-5,84.6,59.1,39.0,52.7,26.3,6.8,79,43,6,30.03,29.83,6,1,6,0.00
2013-10-6,86.4,61.7,41.7,42.5,19.0,2.5,77,30,6,29.83,29.65,15,4,17,0.04
2013-10-7,76.3,55.1,48.2,46.7,29.5,6.9,77,43,8,29.80,29.68,18,5,18,0.08
2013-10-8,54.1,49.5,43.3,46.0,36.1,23.5,74,61,40,29.83,29.68,14,4,14,0.28
2013-10-9,66.7,48.7,38.5,37.0,23.0,5.9,78,44,10,29.68,29.68,13,5,13,0.00
2013-10-10,75.6,53.9,41.4,34.3,22.9,6.0,69,36,8,29.68,29.68,9,2,9,0.00
2013-10-11,77.2,53.9,42.4,32.8,19.5,2.0,58,31,8,29.68,29.68,8,1,8,0.00
2013-10-12,75.6,51.2,42.1,32.0,23.9,6.1,59,38,8,29.68,29.68,8,2,8,0.00
2013-10-13,66.6,50.6,35.6,43.5,20.2,6.0,77,39,10,29.68,29.68,13,4,13,0.00
2013-10-14,65.1,45.4,38.1,33.0,25.9,6.8,74,51,10,29.68,29.68,13,4,13,0.00
2013-10-18,63.5,52.3,45.7,33.2,21.6,5.1,57,34,11,29.77,29.74,7,2,7,0.00
2013-10-19,83.7,57.2,39.2,40.6,23.1,6.7,75,37,6,29.80,29.74,8,1,8,0.00
2013-10-20,80.6,55.8,41.2,54.3,28.3,6.4,79,48,7,29.80,29.71,7,1,7,0.00
2013-10-21,77.7,55.0,41.4,57.7,31.9,8.6,80,53,8,29.74,29.65,6,1,7,0.00
2013-10-22,85.5,59.4,42.3,47.5,27.3,7.6,77,41,6,29.71,29.62,6,1,6,0.00
2013-10-23,84.0,59.7,43.7,50.1,26.8,7.1,78,42,6,29.68,29.62,8,1,8,0.00
2013-10-24,66.2,51.5,44.2,49.1,35.9,6.9,78,61,10,29.77,29.65,5,0,5,0.00
2013-10-25,53.2,49.4,42.8,43.8,39.0,29.2,78,68,40,29.88,29.77,9,3,9,0.00
2013-10-26,54.3,50.3,47.5,40.6,31.8,26.6,71,50,35,29.88,29.88,8,2,8,0.00
2013-10-27,56.3,49.3,43.7,42.3,30.6,21.4,72,50,26,29.88,29.88,20,4,20,0.16
2013-10-28,63.1,49.6,38.8,28.9,12.9,-1.6,53,26,11,29.88,29.88,14,7,16,0.00
2013-10-29,73.9,47.6,29.7,21.3,10.3,-0.9,50,26,8,29.88,29.88,8,2,8,0.00
2013-10-30,73.4,50.5,32.7,25.5,12.5,3.0,60,27,8,29.88,29.88,9,2,9,0.00
2013-10-31,55.6,52.5,46.9,45.9,32.4,18.0,77,49,26,29.88,29.88,13,4,13,0.00
2013-11-1,63.3,50.3,41.0,50.9,34.6,10.6,78,60,13,29.88,29.88,8,2,8,0.00
2013-11-2,64.2,50.4,41.9,44.3,29.0,4.8,72,47,11,29.88,29.88,23,7,23,0.51
2013-11-3,53.4,45.2,39.7,37.5,30.7,20.3,76,59,28,29.88,29.88,13,5,13,0.16
2013-11-4,49.8,46.6,44.1,37.7,32.7,24.3,76,60,37,29.88,29.71,13,6,13,0.08
2013-11-5,54.3,51.6,48.0,43.4,39.9,33.9,73,64,47,29.85,29.71,13,6,13,0.16
2013-11-6,58.8,55.7,53.8,50.0,45.7,34.9,76,69,47,29.88,29.68,8,1,232,0.35
2013-11-7,61.0,53.2,48.6,49.2,33.9,22.0,75,49,27,29.74,29.53,28,8,28,0.35
2013-11-8,54.1,49.4,41.7,33.9,28.4,20.9,54,44,34,29.80,29.68,9,3,9,0.04
2013-11-9,55.9,46.2,37.8,41.1,28.8,20.7,72,52,28,29.68,29.59,7,1,7,0.00
2013-11-10,70.7,49.7,41.5,41.4,33.2,7.5,75,58,9,29.65,29.59,7,0,7,0.00
2013-11-11,60.4,49.9,46.2,44.5,39.3,24.6,75,68,26,29.71,29.56,7,1,7,0.00
2013-11-12,62.1,53.9,47.5,48.6,43.0,36.9,75,68,41,29.97,29.65,11,3,11,0.43
2013-11-13,58.8,53.1,50.0,50.2,41.4,26.0,75,66,32,30.00,29.88,11,3,11,0.00
2013-11-14,60.1,51.3,48.2,45.3,33.7,25.2,75,53,27,29.77,29.62,8,2,8,0.00
2013-11-15,54.1,47.9,43.5,41.2,32.3,23.7,74,56,34,29.65,29.15,26,6,26,0.04
2013-11-16,57.9,49.6,45.1,40.7,29.4,21.6,73,48,27,29.38,29.12,25,8,25,0.12
2013-11-17,55.2,52.0,48.4,38.7,25.6,21.1,68,36,27,29.53,29.38,14,8,14,0.00
2013-11-18,59.2,54.2,52.0,41.6,28.6,21.5,65,38,25,29.50,29.26,22,8,22,0.28
2013-11-19,57.2,51.3,40.5,48.1,32.5,12.8,72,50,29,29.47,29.23,17,8,17,0.39
2013-11-20,47.3,39.5,34.0,20.3,14.9,11.1,46,36,28,29.62,29.47,18,9,18,0.00
2013-11-21,52.5,40.4,27.1,5.2,-1.6,-8.9,38,17,12,29.91,29.88,19,6,19,0.00
2013-11-22,56.1,37.6,22.6,6.9,0.4,-6.4,42,22,12,29.91,29.74,13,3,13,0.00
2013-11-23,58.3,40.2,27.5,9.5,0.8,-6.9,41,20,12,29.74,29.53,10,3,10,0.00
2013-11-24,64.2,36.8,27.0,16.7,9.1,-1.5,49,34,11,29.62,29.50,5,1,6,0.00
2013-11-25,64.4,41.1,26.4,20.6,11.0,0.2,50,33,10,29.65,29.62,6,2,6,0.00
2013-11-26,57.9,39.6,28.8,33.6,15.3,0.8,71,42,12,29.62,29.44,8,2,8,0.00
2013-11-27,66.0,40.8,30.4,24.4,14.1,-0.2,72,39,10,29.44,29.23,7,1,7,0.00
2013-11-28,66.0,41.5,29.1,24.5,13.4,-0.3,70,38,10,29.44,29.26,8,1,8,0.00
2013-11-29,57.6,41.0,30.4,31.5,20.4,7.3,77,48,14,29.59,29.44,6,1,6,0.00
2013-11-30,61.7,47.4,40.3,29.1,24.3,9.5,59,42,14,29.59,29.44,11,3,11,0.00
2013-12-1,55.4,52.9,48.9,46.4,39.5,24.8,74,61,38,29.44,29.15,31,15,31,0.51
2013-12-2,58.5,44.6,34.9,45.4,25.7,0.8,75,52,12,29.21,29.12,24,6,24,0.43
2013-12-3,50.5,37.5,26.8,30.1,11.4,-10.0,72,40,15,29.35,29.18,13,4,13,0.00
2013-12-4,52.7,31.2,18.3,6.9,-2.7,-12.6,45,25,12,29.38,29.32,9,4,9,0.00
2013-12-5,38.7,18.7,14.4,0.4,-2.5,-10.9,44,39,16,29.32,29.32,5,1,5,0.00
2013-12-9,37.6,29.9,27.0,4.7,-2.0,-10.6,35,25,14,30.24,30.18,11,2,11,0.00
2013-12-10,41.0,27.8,20.1,8.6,4.4,-2.1,52,37,18,30.21,30.03,6,1,6,0.00
2013-12-11,46.8,26.8,19.6,21.8,8.8,-1.5,61,47,14,30.03,29.85,0,0,0,0.00
2013-12-12,44.6,33.8,20.5,34.4,17.5,3.6,76,52,28,29.88,29.77,14,3,14,0.16
2013-12-13,55.0,45.3,35.1,39.9,33.5,25.0,76,65,33,30.09,29.85,9,4,9,0.08
2013-12-14,57.6,40.7,34.0,35.7,28.2,19.1,76,63,26,30.12,30.03,10,2,10,0.00
2013-12-15,53.8,45.5,36.9,41.2,32.0,26.0,75,61,36,30.12,30.06,8,2,8,0.12
2013-12-16,50.2,44.2,41.0,38.4,34.0,23.5,75,68,39,30.12,29.91,8,2,8,0.00
2013-12-17,41.9,38.7,36.1,34.6,31.3,28.7,75,74,73,29.91,29.85,8,2,8,0.00
2013-12-18,43.9,41.2,36.5,34.7,25.7,13.5,73,56,34,29.80,29.71,19,6,19,0.04
2013-12-19,50.5,36.7,32.2,22.2,16.6,6.4,59,44,19,29.97,29.80,13,4,13,0.00
2013-12-20,49.5,40.9,34.3,41.4,25.4,14.0,74,55,37,29.88,29.59,22,7,22,0.16
2013-12-21,60.3,51.4,49.1,46.4,36.3,25.2,74,58,27,29.62,29.62,10,4,10,0.04
2013-12-22,56.3,52.2,46.4,44.0,36.8,28.6,72,57,39,29.62,29.62,11,4,11,0.04
2013-12-23,55.0,49.9,39.2,44.7,35.6,24.5,71,58,39,29.62,29.62,13,5,13,0.28
2013-12-24,59.2,41.1,31.6,33.2,25.9,8.9,75,58,17,29.62,29.62,11,2,11,0.00
2013-12-25,43.9,38.2,35.1,34.6,29.4,26.4,75,70,63,29.62,29.62,6,1,6,0.00
2013-12-26,43.3,37.5,33.8,29.2,25.2,20.8,72,61,47,29.62,29.62,4,0,4,0.00
2013-12-27,48.9,39.1,34.5,32.3,26.0,20.7,72,60,40,29.62,29.62,9,1,9,0.00
2013-12-28,55.9,42.8,36.5,46.2,26.4,18.2,75,55,27,29.62,29.62,9,2,9,0.00
2013-12-29,47.1,41.8,36.3,33.5,24.1,17.0,74,51,34,30.03,29.62,8,1,8,0.00
2013-12-30,52.5,43.3,39.4,34.6,29.3,18.9,74,60,28,29.94,29.85,8,2,8,0.00
2013-12-31,64.6,49.3,41.9,34.4,23.1,8.4,69,39,13,29.88,29.88,8,1,8,0.00
2014-1-1,49.3,42.9,37.6,39.3,33.9,28.0,74,70,57,29.88,29.88,6,1,6,0.00
2014-1-2,56.7,45.5,38.7,38.6,29.2,17.5,74,55,22,29.88,29.88,8,2,8,0.00